Location: Austin
(30.3000°N, 97.7500°W)
Time: 22:34:27
(UTC-05:00)

Cosmos 2082 Rocket - Pass Details

Date: 22 March 2026
Orbit: 831 x 854 km, 71.0° (Epoch: 20 April)

Event Time Altitude Azimuth Distance (km) Brightness Sun altitude
Rises 06:50:36 0° 152° (SSE) 3,376 5.6 -9.8°
Reaches altitude 10° 06:54:21 10° 126° (SE) 2,452 5.4 -9.0°
Maximum altitude 06:56:58 13° 98° (E) 2,220 5.8 -8.4°
Drops below altitude 10° 06:59:35 10° 70° (ENE) 2,466 6.2 -7.9°
Sets 07:03:22 0° 45° (NE) 3,411 6.2 -7.1°
